This demonstration page uses our WeatherBlox Daily Observations layout. Learn more.

Left ArrowRight Arrow

Hourly Observations for December 7, 2017

Temp ( °F °C ) Dew Point ( °F °C ) Humidity (%) Winds ( mph kmh ) Pressure ( in mb ) Visibility ( mi km ) Precip ( " mm )
12:09 am 00:09 Cloudy with Light Snow 33 0.6 33 0.6 100 100 E 7 11 30.45 1031 3 4 0.01 0.25
12:50 am 00:50 Cloudy with Light Snow 34 1 32 0 93 93 NE 5 7 30.45 1031 2 3 0.03 0.76
12:53 am 00:53 Cloudy with Light Snow 33 0.6 32 0 96 96 ENE 5 7 30.37 1029 2 3 0.03 0.76
1:11 am 01:11 Cloudy with Light Snow 33 0.6 32 0 96 96 NE 5 7 30.45 1031 3 4 0.01 0.25
1:30 am 01:30 Cloudy with Light Snow 33 0.6 32 0 96 96 NE 5 7 30.45 1031 3 5 0.02 0.51
1:53 am 01:53 Cloudy with Light Snow 33 0.6 33 0.6 100 100 NE 6 9 30.37 1028 5 8 0.02 0.51
2:07 am 02:07 Cloudy with Light Wintry Mix 33 0.6 33 0.6 100 100 NE 3 6 30.45 1031 6 10 0.01 0.25
2:53 am 02:53 Cloudy 35 1.7 33 0.6 93 93 E 7 11 30.37 1028 10 16 0.01 0.25
3:48 am 03:48 Cloudy 36 2 34 1 93 93 NNE 6 9 30.45 1031 10 16 0.01 0.25
3:53 am 03:53 Cloudy 35 1.7 34 1.1 96 96 NNE 6 9 30.38 1029 9 14 0.01 0.25
4:53 am 04:53 Cloudy with Light Rain 35 1.7 34 1.1 96 96 N 5 7 30.37 1028 9 14 0.00 0.03
5:05 am 05:05 Cloudy 35 1.7 34 1.1 96 96 N 6 9 30.45 1031 9 14 0.00 0.03
5:31 am 05:31 Cloudy with Light Rain 35 1.7 34 1.1 96 96 N 6 9 30.45 1031 8 13 0.01 0.25
5:46 am 05:46 Cloudy with Light Snow 34 1.1 34 1.1 100 100 N 8 13 30.45 1031 5 8 0.02 0.51
5:53 am 05:53 Cloudy with Light Snow 34 1.1 33 0.6 97 97 NNE 8 13 30.38 1029 5 8 0.02 0.51
6:05 am 06:05 Cloudy with Light Snow 34 1.1 33 0.6 97 97 NNE 8 13 30.45 1031 4 6 0.00 0.03
6:13 am 06:13 Cloudy with Light Snow 34 1.1 33 0.6 97 97 NNE 7 11 30.48 1032 7 11 0.00 0.03
6:53 am 06:53 Cloudy 35 1.7 34 1.1 96 96 NNE 5 7 30.39 1029 10 16 0.01 0.25
7:53 am 07:53 Cloudy 35 1.7 34 1.1 96 96 Calm 30.41 1030 10 16 0.00 0.03
8:32 am 08:32 Cloudy 35 1.7 34 1.1 96 96 S 3 6 30.50 1033 10 16 0.00 0.00
8:42 am 08:42 Cloudy with Light Rain 35 1.7 34 1.1 96 96 Calm 30.48 1032 8 13 0.01 0.25
8:53 am 08:53 Cloudy with Light Snow 34 1.1 33 0.6 97 97 NNW 6 9 30.42 1030 5 8 0.01 0.25
8:59 am 08:59 Cloudy with Light Snow 33 0.6 32 0 96 96 NE 9 15 30.53 1034 2 2 0.01 0.25
9:02 am 09:02 Cloudy with Light Snow 33 0.6 32 0 96 96 NE 15 24 30.53 1034 1 1 0.02 0.51
9:06 am 09:06 Cloudy with Heavy Snow 32 0 31 -0.6 96 96 E 15 24 30.53 1034 0 0 0.04 1.02
9:09 am 09:09 Cloudy with Light Snow 33 0.6 32 0 96 96 ENE 13 20 30.53 1034 1 1 0.04 1.02
9:13 am 09:13 Cloudy with Light Snow 33 0.6 32 0 96 96 E 9 15 30.53 1034 1 2 0.04 1.02
9:21 am 09:21 Cloudy with Light Snow 33 0.6 32 0 96 96 ENE 6 9 30.53 1034 9 14 0.04 1.02
9:37 am 09:37 Cloudy 33 0.6 32 0 96 96 E 7 11 30.56 1035 10 16 0.04 1.02
9:53 am 09:53 Cloudy 34 1.1 32 0 92 92 ENE 10 17 30.46 1032 10 16 0.04 1.02
10:53 am 10:53 Cloudy with Light Snow 34 1.1 30 -1.1 85 85 ENE 16 26 30.47 1032 6 10 0.00 0.03
11:53 am 11:53 Cloudy 34 1.1 29 -1.7 82 82 ENE 15 24 30.46 1032 10 16 0.00 0.03
12:41 pm 12:41 Cloudy with Light Snow 34 1.1 29 -1.7 82 82 ENE 13 20 30.50 1033 4 6 0.00 0.03
12:53 pm 12:53 Cloudy with Light Snow 34 1.1 28 -2.2 79 79 ENE 14 22 30.43 1031 3 5 0.00 0.03
1:53 pm 13:53 Cloudy 34 1.1 28 -2.2 79 79 ENE 9 15 30.41 1030 10 16 0.00 0.03
2:53 pm 14:53 Cloudy 35 1.7 26 -3.3 70 70 ENE 10 17 30.40 1029 10 16 0.00 0.00
3:53 pm 15:53 Cloudy 36 2.2 23 -5 59 59 ENE 7 11 30.38 1029 10 16 0.00 0.00
4:53 pm 16:53 Cloudy 36 2.2 22 -5.6 57 57 NE 6 9 30.39 1029 10 16 0.00 0.00
5:53 pm 17:53 Cloudy 34 1.1 27 -2.8 76 76 SW 7 11 30.40 1029 10 16 0.00 0.00
6:53 pm 18:53 Partly Cloudy 33 0.6 28 -2.2 82 82 WSW 7 11 30.40 1030 10 16 0.00 0.00
7:53 pm 19:53 Clear 31 -0.6 29 -1.7 92 92 W 8 13 30.41 1030 10 16 0.00 0.00
8:53 pm 20:53 Clear 31 -0.6 29 -1.7 92 92 W 9 15 30.40 1029 10 16 0.00 0.00
9:53 pm 21:53 Clear 30 -1.1 28 -2.2 92 92 WSW 12 19 30.40 1030 10 16 0.00 0.00
10:53 pm 22:53 Clear 29 -1.7 28 -2.2 96 96 WSW 10 17 30.40 1030 10 16 0.00 0.00
11:53 pm 23:53 Clear 29 -1.7 27 -2.8 92 92 W 8 13 30.39 1029 10 16 0.00 0.00

Powered by AerisWeather